Theta_e
340 339 337 339 339 337 338 338 337 336 335 334 334 334 335 336 336 336 336 334 332 331 330 329 329 329 329 328 328 326 325 325 324 323 323 323 322 322 320 321 320 319
339 340 339 339 337 339 339 340 339 337 335 335 333 332 333 334 335 336 335 331 330 329 328 328 327 327 326 326 326 325 323 322 321 321 321 320 321 321 320 320 319 318
339 338 337 336 336 336 339 338 338 337 335 334 333 332 332 332 332 333 333 330 328 327 327 327 326 326 325 325 325 324 322 321 321 322 321 320 319 319 318 318 317 317
338 338 337 335 336 336 337 336 335 335 332 330 330 332 332 331 332 332 330 329 327 326 326 325 325 325 324 324 324 322 321 320 320 321 320 319 319 319 318 318 317 316
339 337 336 335 336 337 336 334 333 331 329 331 330 331 330 331 332 329 327 327 327 325 324 323 323 323 323 323 322 320 319 318 319 320 318 317 318 318 316 316 314 313
339 337 336 334 335 334 333 332 330 329 328 329 329 329 330 330 329 328 327 326 325 323 323 323 322 322 322 322 321 320 319 318 317 317 315 314 314 314 314 315 314 313
338 337 336 335 335 334 332 331 328 328 328 329 328 327 328 327 329 327 325 325 323 322 322 322 321 321 322 321 319 317 317 317 316 315 313 313 312 312 312 312 312 311
337 338 336 335 335 333 330 329 327 327 327 326 327 328 327 326 327 326 325 323 322 321 321 321 321 321 320 319 317 316 316 316 315 314 313 313 313 311 312 312 313 311
338 337 336 335 333 330 330 328 327 326 326 325 327 328 328 328 326 325 324 323 322 321 320 320 319 319 320 317 316 315 314 314 314 313 312 311 311 310 310 312 312 312
336 335 334 333 330 328 327 326 324 324 326 326 327 328 329 327 326 324 323 322 321 320 320 319 318 319 317 315 315 314 313 312 312 312 312 311 311 310 311 311 311 311
333 332 332 330 327 327 326 325 323 324 326 326 328 329 325 325 324 324 323 321 320 319 318 318 318 316 315 314 314 314 313 312 312 312 312 312 312 311 311 311 310 310
332 331 330 327 326 327 325 324 324 324 323 325 325 323 323 324 324 323 322 320 319 319 318 317 316 315 313 313 313 313 313 313 313 312 311 311 311 311 311 311 310 309
329 328 327 325 324 324 324 325 323 324 323 323 324 322 321 323 324 322 322 319 318 318 317 316 315 313 313 313 312 312 312 312 312 312 311 311 311 310 310 310 309 309
328 329 326 325 324 323 322 323 323 323 323 323 323 321 321 321 321 320 320 319 318 317 316 315 313 312 312 312 312 312 312 312 312 312 311 311 311 310 309 308 307 305
328 327 325 325 323 322 321 321 322 322 322 322 321 321 323 321 321 320 318 317 316 316 314 314 312 312 312 312 311 311 312 311 311 310 310 310 310 309 308 307 305 304
325 325 325 324 322 321 319 320 321 321 321 321 320 319 321 320 319 319 317 316 315 314 314 313 312 313 310 306 308 311 310 310 310 310 310 309 308 308 307 305 303 303
323 323 323 322 322 321 320 320 320 320 321 320 319 319 320 319 317 316 316 315 314 312 312 313 311 308 297 297 298 303 310 310 309 309 309 308 307 306 304 304 305 305
321 321 321 320 319 319 319 319 319 319 318 318 318 318 317 318 317 315 314 314 313 313 312 311 308 299 295 296 297 299 304 310 310 309 309 308 308 307 306 307 308 309
320 320 320 320 319 319 319 319 318 317 316 316 316 317 316 316 315 314 313 313 313 311 310 308 307 295 294 295 295 296 299 307 309 309 308 307 308 308 308 307 306 306
320 318 318 318 317 317 316 316 315 315 316 316 315 315 316 314 314 313 312 311 310 309 308 307 306 296 294 294 295 296 295 301 310 309 309 308 307 307 307 307 307 306
319 317 317 316 315 315 315 315 314 314 314 315 315 314 314 313 312 311 311 310 308 307 306 306 306 293 294 294 295 296 296 301 309 309 308 308 308 308 308 308 307 306
315 314 315 315 314 314 314 314 314 315 314 315 315 314 314 313 311 310 309 308 307 306 305 304 304 292 293 294 295 296 297 308 308 308 307 307 307 307 306 307 306 305
315 314 313 313 314 313 313 313 314 314 315 315 314 314 312 311 310 309 308 307 306 306 304 302 303 296 292 294 295 294 299 307 307 305 306 306 306 306 306 306 306 305
314 314 313 313 313 313 313 314 315 315 315 315 313 312 312 310 309 308 308 308 306 305 303 301 302 298 292 294 293 294 298 307 306 306 306 305 306 307 307 305 303 302
315 314 314 314 314 315 315 315 315 315 315 315 314 313 312 311 310 309 308 308 307 305 304 302 302 300 292 293 292 293 301 309 306 306 305 304 303 302 304 304 302 302
315 315 315 315 316 316 315 315 315 314 313 313 313 313 311 310 309 309 307 307 306 305 304 304 302 302 301 291 293 293 292 303 306 304 304 303 302 300 300 301 301 299
Wind_Speed
10 10 10 9 8 7 7 7 7 7 7 7 7 7 6 4 5 3 5 8 8 6 5 5 5 5 5 5 6 6 6 6 6 5 6 6 6 6 6 7 7 5
12 10 8 9 8 6 7 6 6 6 7 7 8 7 6 4 4 2 6 10 8 6 6 6 5 5 5 5 6 6 6 6 6 5 6 7 6 7 7 7 6 5
11 11 11 11 9 11 8 6 6 7 8 7 8 8 7 6 4 2 6 8 7 7 6 6 6 6 6 6 6 6 6 6 6 6 6 6 6 6 6 6 6 6
12 10 9 10 9 9 9 7 7 7 9 8 9 7 5 6 6 5 7 8 7 7 6 6 6 6 7 6 6 6 7 6 6 6 6 6 6 6 6 6 6 6
12 12 11 11 10 8 8 9 9 9 11 8 9 6 6 5 5 6 8 7 7 7 7 8 7 7 7 6 6 6 6 6 6 6 6 6 6 6 5 6 6 7
12 13 13 13 13 11 8 8 9 11 11 10 9 6 6 6 6 9 8 8 7 8 8 7 8 7 6 6 6 6 6 6 6 7 7 7 7 6 6 6 6 7
13 13 14 13 13 11 9 9 10 9 9 9 8 7 6 7 7 10 9 8 9 9 9 8 8 7 6 5 6 6 6 7 7 7 8 7 7 8 7 7 7 7
13 12 12 12 13 12 10 10 11 9 9 8 8 7 6 7 8 8 8 9 9 10 9 8 8 8 7 6 7 8 7 6 7 8 8 8 7 8 7 6 7 7
12 12 10 12 13 11 11 12 10 8 7 9 8 6 6 6 8 8 9 10 10 10 10 9 8 8 6 7 7 8 8 7 7 8 8 8 8 8 8 7 7 7
11 10 12 12 13 10 11 12 10 9 7 8 7 7 6 5 9 9 9 10 10 10 10 9 8 7 7 8 8 8 9 9 9 8 8 8 8 8 8 7 7 7
11 12 12 13 14 11 12 12 11 10 8 8 7 6 8 7 9 9 9 10 10 10 10 9 8 8 8 8 8 8 9 9 9 8 8 8 8 8 7 7 7 8
12 11 12 14 14 13 13 12 11 11 10 8 8 9 10 10 10 9 9 10 10 10 10 9 8 8 9 9 9 8 8 8 8 9 9 9 8 8 8 7 7 8
13 14 14 14 14 14 14 13 13 11 10 10 8 11 11 9 9 10 9 10 10 10 10 8 9 9 9 9 9 9 9 9 9 9 9 8 8 8 8 8 8 8
13 13 15 14 13 15 14 11 11 10 10 8 10 12 11 10 10 10 10 10 9 10 9 8 9 9 9 9 9 9 9 9 9 8 9 9 9 9 9 9 10 10
12 13 12 14 16 16 16 12 12 13 13 12 11 8 8 9 10 11 11 11 11 10 9 9 8 8 8 8 9 9 9 9 9 9 9 9 9 9 9 10 10 10
13 13 13 14 15 15 15 15 15 14 14 13 11 8 8 10 11 11 12 11 11 10 10 8 8 5 6 9 9 9 9 8 8 9 9 9 9 9 9 10 10 9
14 14 15 14 13 14 13 13 15 14 13 12 11 9 9 10 10 11 11 10 11 10 10 8 7 5 10 9 8 10 9 9 9 8 9 9 9 9 9 9 9 8
14 15 16 16 16 16 16 15 15 12 12 12 11 11 9 8 10 11 11 10 9 10 9 8 7 6 11 9 7 3 7 9 8 8 8 8 8 9 8 7 7 6
15 15 16 16 16 15 14 13 13 13 13 11 10 9 9 10 11 11 10 9 10 10 9 10 8 7 10 8 6 3 6 9 8 8 8 8 8 7 7 7 6 6
15 15 14 13 13 12 13 13 13 13 11 9 9 8 8 11 11 11 10 10 10 10 10 10 9 6 8 7 5 4 3 2 9 8 8 8 8 7 7 7 6 6
14 12 13 13 13 12 11 11 11 10 10 8 8 10 11 11 11 11 10 10 11 10 10 10 7 5 7 6 4 2 4 9 8 8 8 8 7 7 6 6 6 6
12 12 13 13 13 13 13 13 12 11 10 9 10 11 11 11 9 9 10 11 11 11 11 11 7 4 5 5 3 4 5 7 8 8 8 8 8 8 7 6 6 6
12 13 13 13 13 13 12 12 11 11 11 11 12 12 12 11 9 10 10 11 12 11 12 11 9 5 5 6 7 7 4 8 8 8 8 8 7 7 7 7 6 4
13 13 14 13 12 13 13 12 12 12 12 11 12 13 12 11 10 10 10 11 11 12 12 12 11 6 7 9 7 2 6 4 7 8 8 8 7 6 6 6 9 15
13 13 13 14 13 13 13 14 14 13 12 12 12 12 11 11 10 10 11 10 11 12 13 12 11 7 7 5 5 5 4 3 8 7 8 7 7 7 6 7 6 8
13 13 13 13 14 13 14 13 12 12 13 12 12 11 11 10 10 10 12 11 11 12 11 11 11 10 7 7 7 4 6 7 5 7 8 8 8 8 7 7 6 5
Wind_Direction
163 171 160 162 155 153 155 161 162 147 145 153 139 116 112 120 146 123 88 93 95 100 112 114 122 130 125 110 96 94 89 86 82 83 82 82 79 78 73 66 64 61
172 169 160 153 143 135 126 128 132 136 133 118 120 115 108 81 41 96 110 95 100 118 132 126 132 133 123 115 108 100 98 97 97 98 104 102 95 85 77 72 70 71
170 164 160 159 154 150 128 118 118 118 112 115 129 129 123 121 107 71 102 109 123 132 134 137 139 139 128 123 110 103 101 103 100 96 91 84 86 86 86 79 73 69
166 167 161 143 138 147 139 128 120 114 118 133 136 128 114 128 130 127 110 121 132 138 140 140 143 133 129 120 113 107 109 106 102 107 100 92 84 83 82 81 80 77
165 170 163 149 142 135 141 142 131 132 144 135 130 110 114 124 150 136 127 142 143 140 147 150 140 134 129 124 115 114 113 113 118 112 102 99 99 99 98 96 94 90
165 170 160 155 150 145 141 133 131 141 139 129 132 121 130 153 163 133 141 149 148 145 153 154 139 140 132 126 122 116 117 114 114 116 114 111 110 106 101 99 92 83
167 164 157 154 151 143 132 129 140 138 137 130 123 129 147 183 164 139 143 150 150 156 150 149 148 142 134 127 119 117 112 117 121 117 115 110 109 106 103 98 94 92
165 159 158 157 149 137 137 133 141 141 131 122 125 133 172 192 140 133 143 153 151 150 151 150 151 142 136 132 121 120 120 121 121 120 116 115 107 99 96 89 85 85
157 154 146 144 142 140 141 142 129 123 135 127 130 144 179 171 130 142 159 154 151 152 151 153 146 138 136 127 125 129 126 122 121 119 119 118 117 111 106 102 98 92
149 145 146 141 141 132 132 134 131 133 135 127 136 162 171 195 141 151 157 156 154 154 153 150 139 141 133 132 131 129 127 126 126 125 121 116 113 112 109 105 100 97
142 147 142 134 143 149 142 133 129 126 127 130 152 157 158 176 151 157 161 160 157 154 152 143 144 140 130 126 128 130 127 129 128 122 116 107 102 101 100 99 95 90
147 139 134 136 146 142 138 141 136 132 135 144 162 154 161 171 154 159 161 158 154 155 144 140 140 132 132 132 130 130 128 122 117 116 115 115 114 107 101 96 94 87
153 151 147 147 153 147 141 142 142 133 140 154 155 157 163 175 154 156 160 156 151 147 142 140 134 135 132 132 133 130 127 126 123 120 118 115 111 106 101 96 88 78
156 151 149 147 145 146 148 137 134 137 146 149 155 165 172 164 153 157 153 152 148 145 137 138 134 134 136 137 134 131 129 127 124 122 119 115 110 106 101 92 83 77
143 145 149 149 147 147 150 141 142 151 154 157 160 175 174 149 155 151 154 150 153 138 140 137 138 137 142 143 135 135 132 129 129 128 126 122 116 108 101 93 86 82
147 152 154 153 152 146 147 150 154 156 156 156 160 173 175 143 153 153 153 159 145 142 141 140 138 113 63 114 136 139 136 129 129 131 128 124 119 112 103 99 99 99
147 148 150 149 149 146 147 151 154 156 153 155 160 164 159 144 143 153 154 153 147 146 140 134 112 80 75 76 101 123 129 135 135 129 125 124 121 119 118 120 123 122
148 151 152 150 148 148 150 151 148 146 150 155 160 150 138 147 151 154 154 149 144 138 133 123 108 76 82 71 66 112 143 134 132 131 131 129 127 131 135 142 142 141
150 153 153 152 148 143 143 143 144 146 151 147 144 142 144 153 155 152 153 145 143 138 130 125 120 77 81 72 62 65 130 142 131 131 131 127 130 132 134 134 131 121
150 153 147 138 130 124 131 138 141 145 141 138 139 149 156 151 152 153 146 143 138 133 129 126 125 86 89 85 74 54 310 206 126 128 123 127 127 129 132 135 133 131
150 139 128 129 130 128 128 132 130 128 135 139 149 158 157 155 156 154 145 137 135 132 128 128 117 104 107 95 89 136 142 126 123 122 123 121 126 126 122 116 110 99
136 125 127 129 132 135 136 135 135 141 149 158 163 160 157 155 152 146 141 141 137 133 132 133 122 130 130 132 138 151 157 131 127 125 126 127 125 130 125 119 112 104
135 131 132 134 136 137 136 137 146 153 157 164 162 159 158 157 147 144 144 141 138 137 137 137 140 168 177 165 184 181 215 127 137 134 134 133 128 129 126 100 65 85
138 136 137 138 139 143 146 152 157 163 164 164 161 162 160 154 150 146 144 142 141 140 141 143 149 158 190 194 206 227 295 145 146 138 139 137 135 125 111 101 65 34
140 140 142 145 149 154 159 160 164 164 162 163 161 161 158 156 156 147 142 142 143 140 140 145 149 161 200 229 230 255 316 228 146 146 145 141 134 123 120 117 94 67
143 145 147 154 158 160 161 160 161 161 163 164 162 161 160 157 153 145 144 143 139 140 150 150 152 165 184 219 247 321 12 330 171 155 150 147 143 137 129 130 127 120